EW7004 Weather Reports


Display with metric or nautical units.
time (UTC)temp
F
wind
direction
speed
MPH
gust
MPH
rain 1hr
in
rain 24hr
in
rain mn
in
humidity
%
barometer
mb
20260505124903 52 113 1.0 3.0 0.00 0.03 0.02 90 1031.4
20260505124403 52 139 2.0 3.0 0.00 0.03 0.02 90 1031.3
20260505123903 52 107 3.0 6.0 0.00 0.03 0.02 90 1031.2
20260505123403 52 93 2.0 3.0 0.00 0.03 0.02 90 1031.2
20260505122404 52 93 2.0 3.0 0.00 0.03 0.02 89 1031.3
20260505121903 52 99 2.0 3.0 0.00 0.03 0.02 89 1031.3
20260505121403 52 85 3.0 6.0 0.00 0.03 0.02 89 1031.3
20260505120903 52 97 1.0 6.0 0.00 0.03 0.02 89 1031.3
20260505120403 52 79 3.0 7.0 0.00 0.03 0.02 89 1031.3
20260505115904 52 73 5.0 8.0 0.00 0.03 0.02 88 1031.3
20260505114404 52 109 2.0 3.0 0.00 0.03 0.02 89 1031.4
20260505113903 52 109 2.0 3.0 0.00 0.03 0.02 89 1031.5
20260505112903 52 109 2.0 3.0 0.00 0.03 0.02 89 1031.4
20260505112403 52 109 0.0 0.0 0.00 0.03 0.02 89 1031.4
20260505111403 52 109 0.0 1.0 0.00 0.03 0.02 89 1031.5
20260505110904 52 109 1.0 2.0 0.00 0.03 0.02 89 1031.5
20260505110403 52 109 0.0 2.0 0.00 0.03 0.02 89 1031.5
20260505101904 52 109 1.0 3.0 0.00 0.03 0.02 89 1031.5
20260505101404 52 105 2.0 6.0 0.00 0.03 0.02 89 1031.5
20260505100403 52 78 2.0 7.0 0.00 0.03 0.02 89 1031.6
20260505095403 52 100 3.0 7.0 0.00 0.03 0.02 89 1031.7
20260505094903 52 102 3.0 7.0 0.01 0.03 0.02 89 1031.7
20260505093403 52 87 0.0 0.0 0.01 0.03 0.02 89 1031.9
20260505092903 52 87 0.0 0.0 0.01 0.03 0.02 89 1031.9
20260505092403 52 87 2.0 3.0 0.01 0.03 0.02 89 1031.9
20260505091403 52 76 3.0 7.0 0.01 0.03 0.02 89 1032.0
20260505090904 52 80 2.0 7.0 0.01 0.03 0.02 89 1032.1
20260505090403 52 71 1.0 3.0 0.01 0.03 0.02 89 1032.2
20260505085903 52 71 2.0 3.0 0.02 0.03 0.02 88 1032.3
20260505085403 52 244 0.0 0.0 0.02 0.03 0.02 88 1032.5
20260505084903 52 244 0.0 0.0 0.01 0.02 0.01 88 1032.6
20260505084404 52 244 0.0 0.0 0.01 0.02 0.01 88 1032.6
20260505083903 52 244 0.0 0.0 0.01 0.02 0.01 88 1032.7
20260505083403 52 244 0.0 1.0 0.01 0.02 0.01 88 1032.6
20260505082404 52 244 0.0 2.0 0.01 0.02 0.01 88 1032.7
20260505081903 52 244 0.0 2.0 0.01 0.02 0.01 88 1032.8
20260505081403 52 244 3.0 3.0 0.01 0.02 0.01 88 1032.9
20260505080903 52 235 0.0 5.0 0.01 0.02 0.01 88 1032.9
20260505080404 53 251 2.0 3.0 0.01 0.02 0.01 88 1033.0
20260505075403 53 250 2.0 3.0 0.00 0.01 0.00 88 1032.9
20260505074904 53 250 2.0 5.0 0.00 0.01 0.00 88 1033.0
20260505074404 53 265 3.0 3.0 0.01 0.01 0.00 87 1032.9
20260505073903 54 288 2.0 3.0 0.00 0.01 0.00 88 1033.0
20260505073403 54 288 0.0 2.0 0.00 0.01 0.00 87 1032.9
20260505072903 54 338 2.0 5.0 0.00 0.01 0.00 87 1032.8
20260505072403 54 337 3.0 6.0 0.00 0.01 0.00 87 1032.8
20260505071904 54 330 2.0 5.0 0.00 0.01 0.00 86 1032.8
20260505071404 54 355 2.0 3.0 0.00 0.01 0.00 86 1032.9
20260505070903 54 326 3.0 5.0 0.00 0.01 0.00 85 1032.9
20260505070403 54 324 3.0 6.0 0.00 0.01 0.00 85 1032.9
20260505065403 54 315 3.0 5.0 0.01 0.01 0.01 83 1032.9
20260505064403 55 281 2.0 5.0 0.01 0.01 0.01 82 1033.0
20260505063904 55 299 2.0 3.0 0.00 0.00 0.00 81 1033.0
20260505063404 55 309 2.0 3.0 0.00 0.00 0.00 81 1033.0
20260505062903 55 197 1.0 3.0 0.00 0.00 0.00 80 1033.0
20260505062404 55 264 2.0 6.0 0.00 0.00 0.00 79 1033.0
20260505061904 55 253 2.0 6.0 0.00 0.00 0.00 78 1033.0
20260505061404 55 232 3.0 5.0 0.00 0.00 0.00 77 1033.0
20260505060904 56 217 3.0 6.0 0.00 0.00 0.00 77 1033.0
20260505060403 56 195 3.0 6.0 0.00 0.00 0.00 78 1033.1
20260505055904 56 13 0.0 3.0 0.00 0.00 0.00 78 1033.1
20260505055403 56 340 0.0 0.0 0.00 0.00 0.00 76 1033.1
20260505054904 56 340 0.0 2.0 0.00 0.00 0.00 76 1033.2
20260505054404 56 340 0.0 3.0 0.00 0.00 0.00 76 1033.2
20260505053903 56 349 2.0 5.0 0.00 0.00 0.00 76 1033.3
20260505053403 57 334 3.0 5.0 0.00 0.00 0.00 74 1033.2
20260505052904 57 305 3.0 8.0 0.00 0.00 0.00 73 1033.2
20260505052404 57 274 4.0 7.0 0.00 0.00 0.00 70 1033.2
20260505051403 57 215 8.0 12.0 0.00 0.00 0.00 68 1033.2
20260505050903 57 220 5.0 7.0 0.00 0.00 0.00 68 1033.2
20260505050403 57 214 3.0 9.0 0.00 0.00 0.00 68 1033.1
20260505041403 58 206 6.0 12.0 0.00 0.00 0.00 65 1032.9
20260505040403 59 219 7.0 12.0 0.00 0.00 0.00 65 1032.9
20260505035903 59 212 6.0 12.0 0.00 0.00 0.00 65 1032.8
20260505034903 59 224 6.0 9.0 0.00 0.00 0.00 64 1032.5
20260505034403 59 227 5.0 8.0 0.00 0.00 0.00 64 1032.5
20260505033903 59 233 3.0 9.0 0.00 0.00 0.00 63 1032.4
20260505033403 60 242 5.0 10.0 0.00 0.00 0.00 62 1032.4
20260505032903 60 231 6.0 9.0 0.00 0.00 0.00 62 1032.3
20260505032403 60 222 5.0 10.0 0.00 0.00 0.00 62 1032.3
20260505031903 60 230 6.0 9.0 0.00 0.00 0.00 62 1032.3
20260505031403 60 223 7.0 10.0 0.00 0.00 0.00 62 1032.3
20260505030903 60 228 4.0 8.0 0.00 0.00 0.00 62 1032.3
20260505030403 60 221 7.0 12.0 0.00 0.00 0.00 61 1032.2
20260505025404 60 222 9.0 14.0 0.00 0.00 0.00 61 1032.1
20260505024903 60 226 6.0 12.0 0.00 0.00 0.00 61 1032.1
20260505023903 61 225 3.0 12.0 0.00 0.00 0.00 60 1032.0
20260505023403 61 287 5.0 7.0 0.00 0.00 0.00 59 1032.1
20260505022904 61 291 5.0 10.0 0.00 0.00 0.00 59 1032.1
20260505022404 61 271 7.0 12.0 0.00 0.00 0.00 59 1032.1
20260505021903 61 291 4.0 10.0 0.00 0.00 0.00 58 1032.1
20260505021403 61 312 7.0 12.0 0.00 0.00 0.00 58 1032.0
20260505020903 61 289 5.0 10.0 0.00 0.00 0.00 57 1032.0
20260505020403 62 290 6.0 12.0 0.00 0.00 0.00 57 1032.1
20260505015903 62 286 7.0 16.0 0.00 0.00 0.00 56 1032.0
20260505015403 62 269 7.0 13.0 0.00 0.00 0.00 56 1031.9
20260505014904 62 275 8.0 12.0 0.00 0.00 0.00 55 1031.8
20260505014403 62 278 7.0 13.0 0.00 0.00 0.00 55 1031.7
20260505013903 62 253 8.0 12.0 0.00 0.00 0.00 55 1031.8
20260505013403 63 283 10.0 16.0 0.00 0.00 0.00 55 1031.9
20260505011903 63 248 9.0 15.0 0.00 0.00 0.00 53 1031.7
20260505010905 64 269 10.0 14.0 0.00 0.00 0.00 51 1031.7
20260505010403 64 255 7.0 15.0 0.00 0.00 0.00 51 1031.7
20260505005903 64 261 9.0 16.0 0.00 0.00 0.00 50 1031.7
20260505005403 64 278 10.0 16.0 0.00 0.00 0.00 48 1031.7
20260505004903 65 260 10.0 20.0 0.00 0.00 0.00 47 1031.6
20260505004406 65 280 10.0 15.0 0.00 0.00 0.00 46 1031.7
20260505003903 65 293 10.0 17.0 0.00 0.00 0.00 46 1031.6
20260505003403 65 303 10.0 17.0 0.00 0.00 0.00 45 1031.6
20260505002903 65 292 8.0 15.0 0.00 0.00 0.00 44 1031.6
20260505002404 65 304 6.0 15.0 0.00 0.00 0.00 45 1031.7
20260505001903 65 290 7.0 12.0 0.00 0.00 0.00 44 1031.7
20260505001403 66 290 7.0 14.0 0.00 0.00 0.00 44 1031.8
20260505000903 66 264 9.0 13.0 0.00 0.00 0.00 43 1031.8
20260505000405 66 272 8.0 12.0 0.00 0.00 0.00 42 1031.7
20260504235904 66 250 9.0 13.0 0.00 0.00 0.00 41 1031.6
20260504235403 65 260 5.0 13.0 0.00 0.00 0.00 41 1031.6
20260504234903 65 227 6.0 9.0 0.00 0.00 0.00 41 1031.7
20260504234403 65 263 5.0 8.0 0.00 0.00 0.00 43 1031.7
20260504233904 65 260 6.0 12.0 0.00 0.00 0.00 43 1031.6
20260504233405 65 231 5.0 12.0 0.00 0.00 0.00 43 1031.6
20260504232904 65 262 7.0 12.0 0.00 0.00 0.00 43 1031.8
20260504232404 65 257 6.0 12.0 0.00 0.00 0.00 43 1031.7
20260504231404 65 262 7.0 10.0 0.00 0.00 0.00 44 1031.8
20260504230903 65 254 5.0 14.0 0.00 0.00 0.00 44 1031.8
20260504230404 65 247 7.0 14.0 0.00 0.00 0.00 45 1031.7
20260504225404 64 293 5.0 10.0 0.00 0.00 0.00 45 1032.0
20260504224903 64 237 5.0 8.0 0.00 0.00 0.00 45 1032.1
20260504223903 64 277 7.0 14.0 0.00 0.00 0.00 46 1032.2
20260504223404 64 273 9.0 14.0 0.00 0.00 0.00 46 1032.3
20260504222903 64 247 5.0 12.0 0.00 0.00 0.00 46 1032.3
20260504221904 64 289 6.0 12.0 0.00 0.00 0.00 47 1032.6
20260504221403 64 284 4.0 12.0 0.00 0.00 0.00 47 1032.6
20260504220904 64 308 6.0 12.0 0.00 0.00 0.00 47 1032.6
20260504220403 64 319 3.0 10.0 0.00 0.00 0.00 47 1032.6
20260504215903 64 279 7.0 12.0 0.00 0.00 0.00 47 1032.6
20260504215403 64 256 6.0 12.0 0.00 0.00 0.00 47 1032.8
20260504213904 64 336 5.0 10.0 0.00 0.00 0.00 48 1032.9
20260504213403 64 316 4.0 8.0 0.00 0.00 0.00 48 1033.0
20260504212903 64 305 4.0 9.0 0.00 0.00 0.00 48 1033.3
20260504211903 64 12 1.0 3.0 0.00 0.00 0.00 48 1033.3
20260504211403 64 5 2.0 6.0 0.00 0.00 0.00 48 1033.3
20260504210903 64 90 2.0 6.0 0.00 0.00 0.00 50 1033.3
20260504210404 63 249 1.0 3.0 0.00 0.00 0.00 50 1033.3
20260504205903 63 267 2.0 3.0 0.00 0.00 0.00 50 1033.3
20260504205403 63 292 1.0 6.0 0.00 0.00 0.00 50 1033.5
20260504204904 63 11 3.0 9.0 0.00 0.00 0.00 51 1033.3
20260504204403 63 354 2.0 7.0 0.00 0.00 0.00 51 1033.4
20260504203403 63 21 5.0 8.0 0.00 0.00 0.00 51 1033.4
20260504202904 63 348 3.0 5.0 0.00 0.00 0.00 52 1033.4
20260504202403 63 300 1.0 3.0 0.00 0.00 0.00 52 1033.5
20260504201904 62 326 1.0 3.0 0.00 0.00 0.00 52 1033.5
20260504201404 62 256 2.0 3.0 0.00 0.00 0.00 52 1033.4
20260504200903 62 289 1.0 6.0 0.00 0.00 0.00 53 1033.5
20260504200403 62 303 2.0 3.0 0.00 0.00 0.00 54 1033.6
20260504195903 62 238 1.0 3.0 0.00 0.00 0.00 54 1033.7
20260504195404 62 299 2.0 3.0 0.00 0.00 0.00 54 1033.8
20260504194903 62 279 3.0 5.0 0.00 0.00 0.00 53 1033.8
20260504194404 62 263 2.0 7.0 0.00 0.00 0.00 54 1033.8
20260504193904 61 236 0.0 3.0 0.00 0.00 0.00 54 1033.7
20260504193404 61 273 2.0 3.0 0.00 0.00 0.00 55 1033.8
20260504192903 61 173 2.0 5.0 0.00 0.00 0.00 54 1033.7
20260504192403 61 248 1.0 9.0 0.00 0.00 0.00 54 1033.8
20260504191903 61 220 7.0 12.0 0.00 0.00 0.00 54 1034.0
20260504191404 61 251 3.0 9.0 0.00 0.00 0.00 55 1034.0
20260504190903 61 225 4.0 9.0 0.00 0.00 0.00 55 1033.9
20260504190404 61 218 6.0 10.0 0.00 0.00 0.00 55 1034.2
20260504185903 61 219 4.0 9.0 0.00 0.00 0.00 55 1034.1
20260504185404 61 199 4.0 9.0 0.00 0.00 0.00 56 1033.9
20260504184903 61 207 2.0 8.0 0.00 0.00 0.00 57 1033.9
20260504184404 61 196 5.0 10.0 0.00 0.00 0.00 57 1033.9
20260504183903 61 157 3.0 8.0 0.00 0.00 0.00 56 1033.9
20260504183403 61 209 3.0 6.0 0.00 0.00 0.00 57 1034.0
20260504182904 61 196 6.0 10.0 0.00 0.00 0.00 57 1034.1
20260504182404 61 195 3.0 12.0 0.00 0.00 0.00 57 1034.2
20260504181903 61 191 4.0 13.0 0.00 0.00 0.00 57 1034.1
20260504181404 61 216 8.0 13.0 0.00 0.00 0.00 55 1034.2
20260504180904 61 207 2.0 5.0 0.00 0.00 0.00 55 1034.1
20260504180403 60 180 1.0 6.0 0.00 0.00 0.00 56 1034.0
20260504175904 60 186 2.0 6.0 0.00 0.00 0.00 56 1033.9
20260504175403 60 149 1.0 3.0 0.00 0.00 0.00 56 1033.9
20260504174904 60 152 2.0 3.0 0.00 0.00 0.00 56 1033.9
20260504173404 59 199 1.0 5.0 0.00 0.00 0.00 59 1033.8
20260504172903 58 219 2.0 6.0 0.00 0.00 0.00 59 1033.7
20260504172404 58 254 2.0 7.0 0.00 0.00 0.00 59 1033.7
20260504171903 58 229 3.0 6.0 0.00 0.00 0.00 59 1033.8
20260504171405 59 242 1.0 6.0 0.00 0.00 0.00 63 1033.7
20260504170403 58 222 2.0 5.0 0.00 0.00 0.00 64 1033.6
20260504160404 58 178 2.0 5.0 0.00 0.00 0.00 66 1033.4
20260504150903 56 317 2.0 3.0 0.00 0.00 0.00 68 1033.3
20260504150403 56 285 3.0 8.0 0.00 0.00 0.00 68 1033.3
20260504140903 54 336 2.0 3.0 0.00 0.00 0.00 73 1033.0
20260504140403 54 282 0.0 0.0 0.00 0.00 0.00 73 1033.3